Time,TemperatureF,DewpointF,PressureIn,WindDirection,WindDirectionDegrees,WindSpeedMPH,WindSpeedGustMPH,Humidity,HourlyPrecipIn,Conditions,Clouds,dailyrainin,SolarRadiationWatts/m^2,SoftwareType,DateUTC
2013-10-28 00:00:00,35.7,31.4,30.05,NNW,345,0.0,9.0,84,0.00,,---,0.00,0.00,VWS V14.01,2013-10-28 05:00:00,
2013-10-28 00:01:00,35.9,31.5,30.05,NNW,345,1.0,3.0,84,0.00,,---,0.00,0.00,VWS V14.01,2013-10-28 05:01:00,
2013-10-28 00:06:00,36.7,32.0,30.06,North,5,0.0,3.0,83,0.00,,---,0.00,0.00,VWS V14.01,2013-10-28 05:06:00,
2013-10-28 00:11:00,37.3,32.3,30.06,NNW,342,0.0,4.0,82,0.00,,---,0.00,0.00,VWS V14.01,2013-10-28 05:11:00,
2013-10-28 00:16:00,37.9,32.6,30.07,NNW,342,0.0,4.0,81,0.00,,---,0.00,0.00,VWS V14.01,2013-10-28 05:16:00,
2013-10-28 00:21:00,38.3,32.7,30.07,NNE,23,1.0,4.0,80,0.00,,---,0.00,0.00,VWS V14.01,2013-10-28 05:21:00,
2013-10-28 00:26:00,38.6,33.0,30.07,NE,51,3.0,5.0,80,0.00,,---,0.00,0.00,VWS V14.01,2013-10-28 05:26:00,
2013-10-28 00:31:00,39.2,32.9,30.08,NNW,344,1.0,5.0,78,0.00,,---,0.00,0.00,VWS V14.01,2013-10-28 05:31:00,
2013-10-28 00:36:00,39.5,32.9,30.08,NNW,344,0.0,5.0,77,0.00,,---,0.00,0.00,VWS V14.01,2013-10-28 05:36:00,
2013-10-28 00:41:00,39.7,33.1,30.08,North,9,3.0,5.0,77,0.00,,---,0.00,0.00,VWS V14.01,2013-10-28 05:41:00,
2013-10-28 00:46:00,40.1,33.2,30.08,East,80,1.0,5.0,76,0.00,,---,0.00,0.00,VWS V14.01,2013-10-28 05:46:00,
2013-10-28 00:51:00,40.3,33.0,30.08,NNE,29,3.0,5.0,75,0.00,,---,0.00,0.00,VWS V14.01,2013-10-28 05:51:00,
2013-10-28 00:56:00,40.4,33.1,30.08,NNE,32,2.0,5.0,75,0.00,,---,0.00,0.00,VWS V14.01,2013-10-28 05:56:00,
2013-10-28 01:00:00,40.4,33.1,30.08,NNE,32,0.0,5.0,75,0.00,,---,0.00,0.00,VWS V14.01,2013-10-28 06:00:00,
2013-10-28 01:01:00,40.4,32.8,30.09,NNE,26,2.0,2.0,74,0.00,,---,0.00,0.00,VWS V14.01,2013-10-28 06:01:00,
2013-10-28 01:06:00,40.5,32.9,30.09,NE,54,1.0,4.0,74,0.00,,---,0.00,0.00,VWS V14.01,2013-10-28 06:06:00,
2013-10-28 01:11:00,40.4,32.8,30.09,NE,54,1.0,4.0,74,0.00,,---,0.00,0.00,VWS V14.01,2013-10-28 06:11:00,
2013-10-28 01:16:00,40.3,32.7,30.09,NE,54,0.0,4.0,74,0.00,,---,0.00,0.00,VWS V14.01,2013-10-28 06:16:00,
2013-10-28 01:21:00,40.1,32.5,30.10,NE,54,1.0,4.0,74,0.00,,---,0.00,0.00,VWS V14.01,2013-10-28 06:21:00,
2013-10-28 01:26:00,40.0,32.4,30.10,ENE,63,3.0,4.0,74,0.00,,---,0.00,0.00,VWS V14.01,2013-10-28 06:26:00,
2013-10-28 01:31:00,40.0,32.4,30.10,ENE,59,2.0,4.0,74,0.00,,---,0.00,0.00,VWS V14.01,2013-10-28 06:31:00,
2013-10-28 01:36:00,39.8,32.5,30.10,ENE,59,2.0,4.0,75,0.00,,---,0.00,0.00,VWS V14.01,2013-10-28 06:36:00,
2013-10-28 01:41:00,39.8,32.2,30.10,NNE,29,2.0,4.0,74,0.00,,---,0.00,0.00,VWS V14.01,2013-10-28 06:41:00,
2013-10-28 01:46:00,39.8,32.2,30.10,NNE,28,0.0,4.0,74,0.00,,---,0.00,0.00,VWS V14.01,2013-10-28 06:46:00,
2013-10-28 01:51:00,39.7,32.1,30.11,NE,51,2.0,4.0,74,0.00,,---,0.00,0.00,VWS V14.01,2013-10-28 06:51:00,
2013-10-28 01:56:00,39.7,32.1,30.11,NE,51,1.0,4.0,74,0.00,,---,0.00,0.00,VWS V14.01,2013-10-28 06:56:00,
2013-10-28 02:00:00,39.6,32.0,30.11,NE,51,1.0,4.0,74,0.00,,---,0.00,0.00,VWS V14.01,2013-10-28 07:00:00,
2013-10-28 02:01:00,39.6,32.0,30.11,NE,51,1.0,2.0,74,0.00,,---,0.00,0.00,VWS V14.01,2013-10-28 07:01:00,
2013-10-28 02:06:00,39.6,32.0,30.11,NE,53,1.0,4.0,74,0.00,,---,0.00,0.00,VWS V14.01,2013-10-28 07:06:00,
2013-10-28 02:11:00,39.5,31.9,30.12,NE,53,0.0,4.0,74,0.00,,---,0.00,0.00,VWS V14.01,2013-10-28 07:11:00,
2013-10-28 02:16:00,39.2,32.0,30.12,NE,53,0.0,4.0,75,0.00,,---,0.00,0.00,VWS V14.01,2013-10-28 07:16:00,
2013-10-28 02:21:00,39.1,31.9,30.12,NE,53,1.0,4.0,75,0.00,,---,0.00,0.00,VWS V14.01,2013-10-28 07:21:00,
2013-10-28 02:26:00,39.0,31.8,30.13,NE,53,2.0,4.0,75,0.00,,---,0.00,0.00,VWS V14.01,2013-10-28 07:26:00,
2013-10-28 02:31:00,39.0,32.1,30.13,NE,53,1.0,4.0,76,0.00,,---,0.00,0.00,VWS V14.01,2013-10-28 07:31:00,
2013-10-28 02:36:00,38.9,32.0,30.13,NE,53,0.0,4.0,76,0.00,,---,0.00,0.00,VWS V14.01,2013-10-28 07:36:00,
2013-10-28 02:41:00,38.8,31.9,30.13,NE,53,1.0,4.0,76,0.00,,---,0.00,0.00,VWS V14.01,2013-10-28 07:41:00,
2013-10-28 02:46:00,38.6,31.7,30.13,NE,53,0.0,4.0,76,0.00,,---,0.00,0.00,VWS V14.01,2013-10-28 07:46:00,
2013-10-28 02:51:00,38.5,31.6,30.14,NE,53,2.0,4.0,76,0.00,,---,0.00,0.00,VWS V14.01,2013-10-28 07:51:00,
2013-10-28 02:56:00,38.3,31.7,30.14,NE,53,0.0,4.0,77,0.00,,---,0.00,0.00,VWS V14.01,2013-10-28 07:56:00,
2013-10-28 03:00:00,38.2,31.6,30.14,NE,52,0.0,4.0,77,0.00,,---,0.00,0.00,VWS V14.01,2013-10-28 08:00:00,
2013-10-28 03:01:00,38.2,31.6,30.14,NE,53,1.0,1.0,77,0.00,,---,0.00,0.00,VWS V14.01,2013-10-28 08:01:00,
2013-10-28 03:06:00,38.1,31.5,30.15,NE,53,0.0,2.0,77,0.00,,---,0.00,0.00,VWS V14.01,2013-10-28 08:06:00,
2013-10-28 03:11:00,38.0,31.4,30.15,NE,53,1.0,3.0,77,0.00,,---,0.00,0.00,VWS V14.01,2013-10-28 08:11:00,
2013-10-28 03:16:00,38.0,31.4,30.15,NE,53,1.0,3.0,77,0.00,,---,0.00,0.00,VWS V14.01,2013-10-28 08:16:00,
2013-10-28 03:21:00,37.9,31.7,30.15,NE,53,1.0,3.0,78,0.00,,---,0.00,0.00,VWS V14.01,2013-10-28 08:21:00,
2013-10-28 03:26:00,37.9,31.7,30.15,NE,53,1.0,3.0,78,0.00,,---,0.00,0.00,VWS V14.01,2013-10-28 08:26:00,
2013-10-28 03:31:00,37.9,31.7,30.16,NE,49,3.0,5.0,78,0.00,,---,0.00,0.00,VWS V14.01,2013-10-28 08:31:00,
2013-10-28 03:36:00,37.9,31.7,30.16,NE,49,0.0,5.0,78,0.00,,---,0.00,0.00,VWS V14.01,2013-10-28 08:36:00,
2013-10-28 03:41:00,37.9,31.7,30.16,NE,48,2.0,5.0,78,0.00,,---,0.00,0.00,VWS V14.01,2013-10-28 08:41:00,
2013-10-28 03:46:00,37.9,31.7,30.17,ENE,78,0.0,5.0,78,0.00,,---,0.00,0.00,VWS V14.01,2013-10-28 08:46:00,
2013-10-28 03:51:00,37.8,31.6,30.17,NE,55,0.0,5.0,78,0.00,,---,0.00,0.00,VWS V14.01,2013-10-28 08:51:00,
2013-10-28 03:56:00,37.8,31.6,30.17,ENE,63,5.0,7.0,78,0.00,,---,0.00,0.00,VWS V14.01,2013-10-28 08:56:00,
2013-10-28 04:00:00,37.9,32.0,30.17,NE,44,2.0,7.0,79,0.00,,---,0.00,0.00,VWS V14.01,2013-10-28 09:00:00,
2013-10-28 04:01:00,37.9,32.0,30.17,ENE,73,1.0,3.0,79,0.00,,---,0.00,0.00,VWS V14.01,2013-10-28 09:01:00,
2013-10-28 04:06:00,38.0,31.8,30.18,NE,46,2.0,6.0,78,0.00,,---,0.00,0.00,VWS V14.01,2013-10-28 09:06:00,
2013-10-28 04:11:00,38.0,32.1,30.18,ENE,57,2.0,6.0,79,0.00,,---,0.00,0.00,VWS V14.01,2013-10-28 09:11:00,
2013-10-28 04:16:00,38.0,32.1,30.19,NE,34,7.0,7.0,79,0.00,,---,0.00,0.00,VWS V14.01,2013-10-28 09:16:00,
2013-10-28 04:21:00,38.0,32.1,30.19,NE,56,4.0,7.0,79,0.00,,---,0.00,0.00,VWS V14.01,2013-10-28 09:21:00,
2013-10-28 04:26:00,37.9,32.0,30.19,NE,36,6.0,7.0,79,0.00,,---,0.00,0.00,VWS V14.01,2013-10-28 09:26:00,
2013-10-28 04:31:00,37.8,31.9,30.19,NE,51,3.0,7.0,79,0.00,,---,0.00,0.00,VWS V14.01,2013-10-28 09:31:00,
2013-10-28 04:36:00,37.7,31.8,30.20,NE,51,2.0,7.0,79,0.00,,---,0.00,0.00,VWS V14.01,2013-10-28 09:36:00,
2013-10-28 04:41:00,37.7,31.8,30.20,NE,44,5.0,9.0,79,0.00,,---,0.00,0.00,VWS V14.01,2013-10-28 09:41:00,
2013-10-28 04:46:00,37.6,32.0,30.20,ENE,59,4.0,9.0,80,0.00,,---,0.00,0.00,VWS V14.01,2013-10-28 09:46:00,
2013-10-28 04:51:00,37.5,31.9,30.20,NE,47,1.0,9.0,80,0.00,,---,0.00,0.00,VWS V14.01,2013-10-28 09:51:00,
2013-10-28 04:56:00,37.4,31.8,30.21,ENE,66,1.0,9.0,80,0.00,,---,0.00,0.00,VWS V14.01,2013-10-28 09:56:00,
2013-10-28 05:00:00,37.4,31.8,30.21,ENE,61,3.0,9.0,80,0.00,,---,0.00,0.00,VWS V14.01,2013-10-28 10:00:00,
2013-10-28 05:01:00,37.4,31.8,30.21,ENE,63,2.0,3.0,80,0.00,,---,0.00,0.00,VWS V14.01,2013-10-28 10:01:00,
2013-10-28 05:06:00,37.3,32.0,30.21,ENE,71,2.0,3.0,81,0.00,,---,0.00,0.00,VWS V14.01,2013-10-28 10:06:00,
2013-10-28 05:11:00,37.3,32.0,30.22,NE,45,4.0,4.0,81,0.00,,---,0.00,0.00,VWS V14.01,2013-10-28 10:11:00,
2013-10-28 05:16:00,37.4,32.1,30.22,NE,46,3.0,7.0,81,0.00,,---,0.00,0.00,VWS V14.01,2013-10-28 10:16:00,
2013-10-28 05:21:00,37.4,32.1,30.22,NE,51,2.0,7.0,81,0.00,,---,0.00,0.00,VWS V14.01,2013-10-28 10:21:00,
2013-10-28 05:26:00,37.3,32.0,30.23,NE,51,2.0,7.0,81,0.00,,---,0.00,0.00,VWS V14.01,2013-10-28 10:26:00,
2013-10-28 05:31:00,37.3,32.0,30.23,NE,56,2.0,7.0,81,0.00,,---,0.00,0.00,VWS V14.01,2013-10-28 10:31:00,
2013-10-28 05:36:00,37.2,31.9,30.23,NE,44,3.0,7.0,81,0.00,,---,0.00,0.00,VWS V14.01,2013-10-28 10:36:00,
2013-10-28 05:41:00,37.2,31.9,30.23,ENE,73,2.0,8.0,81,0.00,,---,0.00,0.00,VWS V14.01,2013-10-28 10:41:00,
2013-10-28 05:46:00,37.2,31.9,30.23,ENE,61,2.0,10.0,81,0.00,,---,0.00,0.00,VWS V14.01,2013-10-28 10:46:00,
2013-10-28 05:51:00,37.2,31.6,30.23,NNE,26,5.0,10.0,80,0.00,,---,0.00,0.00,VWS V14.01,2013-10-28 10:51:00,
2013-10-28 05:56:00,37.3,31.7,30.23,East,84,8.0,10.0,80,0.00,,---,0.00,0.00,VWS V14.01,2013-10-28 10:56:00,
2013-10-28 06:00:00,37.3,31.7,30.24,ENE,57,4.0,10.0,80,0.00,,---,0.00,0.00,VWS V14.01,2013-10-28 11:00:00,
2013-10-28 06:01:00,37.3,31.7,30.24,NE,53,5.0,6.0,80,0.00,,---,0.00,0.00,VWS V14.01,2013-10-28 11:01:00,
2013-10-28 06:06:00,37.3,31.4,30.24,NNE,26,2.0,7.0,79,0.00,,---,0.00,0.00,VWS V14.01,2013-10-28 11:06:00,
2013-10-28 06:11:00,37.3,31.4,30.24,ENE,59,4.0,10.0,79,0.00,,---,0.00,0.00,VWS V14.01,2013-10-28 11:11:00,
2013-10-28 06:16:00,37.3,31.4,30.24,NE,38,3.0,10.0,79,0.00,,---,0.00,0.00,VWS V14.01,2013-10-28 11:16:00,
2013-10-28 06:21:00,37.2,31.0,30.24,ENE,67,4.0,10.0,78,0.00,,---,0.00,0.00,VWS V14.01,2013-10-28 11:21:00,
2013-10-28 06:26:00,37.2,30.7,30.25,NE,49,4.0,11.0,77,0.00,,---,0.00,0.00,VWS V14.01,2013-10-28 11:26:00,
2013-10-28 06:31:00,37.2,30.7,30.25,NE,40,2.0,11.0,77,0.00,,---,0.00,0.00,VWS V14.01,2013-10-28 11:31:00,
2013-10-28 06:36:00,37.1,30.6,30.25,East,79,6.0,11.0,77,0.00,,---,0.00,0.00,VWS V14.01,2013-10-28 11:36:00,
2013-10-28 06:41:00,37.0,30.5,30.25,NE,45,4.0,11.0,77,0.00,,---,0.00,0.00,VWS V14.01,2013-10-28 11:41:00,
2013-10-28 06:46:00,37.0,30.5,30.26,ENE,60,8.0,11.0,77,0.00,,---,0.00,0.00,VWS V14.01,2013-10-28 11:46:00,
2013-10-28 06:51:00,36.9,30.4,30.26,NE,39,4.0,11.0,77,0.00,,---,0.00,0.00,VWS V14.01,2013-10-28 11:51:00,
2013-10-28 06:56:00,36.6,30.1,30.26,NE,42,5.0,11.0,77,0.00,,---,0.00,0.00,VWS V14.01,2013-10-28 11:56:00,
2013-10-28 07:00:00,36.5,29.7,30.26,ENE,68,13.0,14.0,76,0.00,,---,0.00,0.00,VWS V14.01,2013-10-28 12:00:00,
2013-10-28 07:01:00,36.6,29.8,30.27,NE,55,3.0,13.0,76,0.00,,---,0.00,0.00,VWS V14.01,2013-10-28 12:01:00,
2013-10-28 07:06:00,36.5,29.7,30.27,ESE,103,9.0,13.0,76,0.00,,---,0.00,0.00,VWS V14.01,2013-10-28 12:06:00,
2013-10-28 07:11:00,36.4,29.6,30.27,ENE,74,5.0,13.0,76,0.00,,---,0.00,0.00,VWS V14.01,2013-10-28 12:11:00,
2013-10-28 07:16:00,36.4,29.6,30.27,NE,42,3.0,13.0,76,0.00,,---,0.00,0.00,VWS V14.01,2013-10-28 12:16:00,
2013-10-28 07:21:00,36.5,29.7,30.28,NE,47,5.0,13.0,76,0.00,,---,0.00,0.00,VWS V14.01,2013-10-28 12:21:00,
2013-10-28 07:26:00,36.4,29.6,30.28,NE,39,3.0,13.0,76,0.00,,---,0.00,0.00,VWS V14.01,2013-10-28 12:26:00,
2013-10-28 07:31:00,36.4,29.6,30.28,NE,44,4.0,13.0,76,0.00,,---,0.00,0.00,VWS V14.01,2013-10-28 12:31:00,
2013-10-28 07:36:00,36.2,29.7,30.28,NNE,32,4.0,13.0,77,0.00,,---,0.00,0.00,VWS V14.01,2013-10-28 12:36:00,
2013-10-28 07:41:00,36.1,29.9,30.28,ENE,73,2.0,13.0,78,0.00,,---,0.00,5.00,VWS V14.01,2013-10-28 12:41:00,
2013-10-28 07:46:00,36.0,30.1,30.29,NE,42,2.0,13.0,79,0.00,,---,0.00,7.00,VWS V14.01,2013-10-28 12:46:00,
2013-10-28 07:51:00,36.0,30.1,30.29,East,80,2.0,13.0,79,0.00,,---,0.00,11.00,VWS V14.01,2013-10-28 12:51:00,
2013-10-28 07:56:00,36.1,30.5,30.30,NNE,24,2.0,13.0,80,0.00,,---,0.00,12.00,VWS V14.01,2013-10-28 12:56:00,
2013-10-28 08:00:00,36.1,30.5,30.30,NE,53,4.0,13.0,80,0.00,,---,0.00,14.00,VWS V14.01,2013-10-28 13:00:00,
2013-10-28 08:01:00,36.1,30.5,30.30,ENE,57,3.0,5.0,80,0.00,,---,0.00,18.00,VWS V14.01,2013-10-28 13:01:00,
2013-10-28 08:06:00,36.1,30.2,30.30,NE,48,5.0,7.0,79,0.00,,---,0.00,19.00,VWS V14.01,2013-10-28 13:06:00,
2013-10-28 08:11:00,36.2,30.0,30.30,NE,44,4.0,14.0,78,0.00,,---,0.00,19.00,VWS V14.01,2013-10-28 13:11:00,
2013-10-28 08:16:00,36.4,29.9,30.30,NE,56,3.0,14.0,77,0.00,,---,0.00,25.00,VWS V14.01,2013-10-28 13:16:00,
2013-10-28 08:21:00,36.4,29.9,30.31,NNE,32,3.0,14.0,77,0.00,,---,0.00,32.00,VWS V14.01,2013-10-28 13:21:00,
2013-10-28 08:26:00,36.4,29.6,30.31,ENE,78,7.0,14.0,76,0.00,,---,0.00,37.00,VWS V14.01,2013-10-28 13:26:00,
2013-10-28 08:31:00,36.5,29.7,30.32,NE,49,6.0,14.0,76,0.00,,---,0.00,40.00,VWS V14.01,2013-10-28 13:31:00,
2013-10-28 08:36:00,36.5,29.7,30.32,East,81,8.0,14.0,76,0.00,,---,0.00,54.00,VWS V14.01,2013-10-28 13:36:00,
2013-10-28 08:41:00,36.6,29.1,30.32,NNE,30,3.0,14.0,74,0.00,,---,0.00,77.00,VWS V14.01,2013-10-28 13:41:00,
2013-10-28 08:46:00,36.8,29.6,30.32,ENE,71,5.0,14.0,75,0.00,,---,0.00,84.00,VWS V14.01,2013-10-28 13:46:00,
2013-10-28 08:51:00,36.9,29.4,30.33,ENE,64,4.0,14.0,74,0.00,,---,0.00,81.00,VWS V14.01,2013-10-28 13:51:00,
2013-10-28 08:56:00,37.0,29.5,30.33,NE,38,3.0,14.0,74,0.00,,---,0.00,109.00,VWS V14.01,2013-10-28 13:56:00,
2013-10-28 09:00:00,37.1,29.3,30.33,NNE,15,4.0,14.0,73,0.00,,---,0.00,105.00,VWS V14.01,2013-10-28 14:00:00,
2013-10-28 09:01:00,37.1,29.3,30.33,NE,46,5.0,11.0,73,0.00,,---,0.00,102.00,VWS V14.01,2013-10-28 14:01:00,
2013-10-28 09:06:00,37.1,29.3,30.33,ENE,72,12.0,12.0,73,0.00,,---,0.00,114.00,VWS V14.01,2013-10-28 14:06:00,
2013-10-28 09:11:00,37.3,29.5,30.34,NNE,32,2.0,12.0,73,0.00,,---,0.00,120.00,VWS V14.01,2013-10-28 14:11:00,
2013-10-28 09:16:00,37.6,29.4,30.34,NE,36,5.0,12.0,72,0.00,,---,0.00,134.00,VWS V14.01,2013-10-28 14:16:00,
2013-10-28 09:21:00,37.7,29.5,30.34,NE,53,3.0,12.0,72,0.00,,---,0.00,105.00,VWS V14.01,2013-10-28 14:21:00,
2013-10-28 09:26:00,37.8,29.6,30.35,ENE,69,8.0,12.0,72,0.00,,---,0.00,127.00,VWS V14.01,2013-10-28 14:26:00,
2013-10-28 09:31:00,37.8,29.6,30.35,ENE,73,4.0,12.0,72,0.00,,---,0.00,121.00,VWS V14.01,2013-10-28 14:31:00,
2013-10-28 09:36:00,38.0,29.8,30.35,NNE,32,2.0,12.0,72,0.00,,---,0.00,134.00,VWS V14.01,2013-10-28 14:36:00,
2013-10-28 09:41:00,38.1,29.5,30.35,NNE,19,2.0,12.0,71,0.00,,---,0.00,156.00,VWS V14.01,2013-10-28 14:41:00,
2013-10-28 09:46:00,38.2,29.6,30.35,NE,34,3.0,12.0,71,0.00,,---,0.00,181.00,VWS V14.01,2013-10-28 14:46:00,
2013-10-28 09:51:00,38.5,29.9,30.35,NNE,31,3.0,12.0,71,0.00,,---,0.00,179.00,VWS V14.01,2013-10-28 14:51:00,
2013-10-28 09:56:00,38.7,29.8,30.36,ENE,65,5.0,12.0,70,0.00,,---,0.00,171.00,VWS V14.01,2013-10-28 14:56:00,
2013-10-28 10:00:00,38.7,29.8,30.36,NE,41,4.0,12.0,70,0.00,,---,0.00,158.00,VWS V14.01,2013-10-28 15:00:00,
2013-10-28 10:01:00,38.7,29.4,30.36,NE,36,4.0,9.0,69,0.00,,---,0.00,162.00,VWS V14.01,2013-10-28 15:01:00,
2013-10-28 10:06:00,38.7,29.8,30.36,NE,51,5.0,9.0,70,0.00,,---,0.00,156.00,VWS V14.01,2013-10-28 15:06:00,
2013-10-28 10:11:00,38.7,29.4,30.36,NE,44,8.0,14.0,69,0.00,,---,0.00,158.00,VWS V14.01,2013-10-28 15:11:00,
2013-10-28 10:16:00,38.6,29.3,30.36,East,90,10.0,14.0,69,0.00,,---,0.00,183.00,VWS V14.01,2013-10-28 15:16:00,
2013-10-28 10:21:00,38.8,29.9,30.36,ESE,118,4.0,14.0,70,0.00,,---,0.00,179.00,VWS V14.01,2013-10-28 15:21:00,
2013-10-28 10:26:00,38.9,30.0,30.36,NE,55,3.0,14.0,70,0.00,,---,0.00,172.00,VWS V14.01,2013-10-28 15:26:00,
2013-10-28 10:31:00,39.3,30.0,30.37,NNE,17,2.0,14.0,69,0.00,,---,0.00,181.00,VWS V14.01,2013-10-28 15:31:00,
2013-10-28 10:36:00,39.5,30.2,30.37,ENE,65,2.0,14.0,69,0.00,,---,0.00,204.00,VWS V14.01,2013-10-28 15:36:00,
2013-10-28 10:41:00,39.6,29.9,30.37,NE,36,4.0,14.0,68,0.00,,---,0.00,193.00,VWS V14.01,2013-10-28 15:41:00,
2013-10-28 10:46:00,39.8,30.1,30.37,NNW,348,5.0,14.0,68,0.00,,---,0.00,192.00,VWS V14.01,2013-10-28 15:46:00,
2013-10-28 10:51:00,40.0,29.9,30.37,NE,37,4.0,14.0,67,0.00,,---,0.00,186.00,VWS V14.01,2013-10-28 15:51:00,
2013-10-28 10:56:00,40.0,29.9,30.37,NE,49,4.0,14.0,67,0.00,,---,0.00,206.00,VWS V14.01,2013-10-28 15:56:00,
2013-10-28 11:00:00,40.0,29.6,30.38,ENE,71,10.0,14.0,66,0.00,,---,0.00,214.00,VWS V14.01,2013-10-28 16:00:00,
2013-10-28 11:01:00,39.8,29.4,30.38,ENE,63,5.0,12.0,66,0.00,,---,0.00,214.00,VWS V14.01,2013-10-28 16:01:00,
2013-10-28 11:06:00,39.7,29.3,30.38,NE,53,3.0,13.0,66,0.00,,---,0.00,221.00,VWS V14.01,2013-10-28 16:06:00,
2013-10-28 11:11:00,40.1,29.7,30.38,ENE,76,5.0,13.0,66,0.00,,---,0.00,214.00,VWS V14.01,2013-10-28 16:11:00,
2013-10-28 11:16:00,40.2,30.1,30.38,NNE,30,6.0,13.0,67,0.00,,---,0.00,142.00,VWS V14.01,2013-10-28 16:16:00,
2013-10-28 11:21:00,40.2,29.8,30.38,NE,47,7.0,16.0,66,0.00,,---,0.00,144.00,VWS V14.01,2013-10-28 16:21:00,
2013-10-28 11:26:00,39.9,29.5,30.38,NNE,26,4.0,16.0,66,0.00,,---,0.00,160.00,VWS V14.01,2013-10-28 16:26:00,
2013-10-28 11:31:00,39.8,29.8,30.38,NE,47,5.0,16.0,67,0.00,,---,0.00,199.00,VWS V14.01,2013-10-28 16:31:00,
2013-10-28 11:36:00,40.1,29.7,30.38,East,99,7.0,16.0,66,0.00,,---,0.00,174.00,VWS V14.01,2013-10-28 16:36:00,
2013-10-28 11:41:00,40.1,29.7,30.38,ENE,65,12.0,16.0,66,0.00,,---,0.00,167.00,VWS V14.01,2013-10-28 16:41:00,
2013-10-28 11:46:00,39.9,29.9,30.38,NE,37,8.0,16.0,67,0.00,,---,0.00,174.00,VWS V14.01,2013-10-28 16:46:00,
2013-10-28 11:51:00,40.0,29.6,30.38,ENE,71,4.0,16.0,66,0.00,,---,0.00,183.00,VWS V14.01,2013-10-28 16:51:00,
2013-10-28 11:56:00,40.1,29.7,30.38,NE,45,4.0,16.0,66,0.00,,---,0.00,169.00,VWS V14.01,2013-10-28 16:56:00,
2013-10-28 12:00:00,40.1,29.7,30.38,NE,40,5.0,16.0,66,0.00,,---,0.00,160.00,VWS V14.01,2013-10-28 17:00:00,
2013-10-28 12:01:00,40.2,29.8,30.38,NE,55,8.0,9.0,66,0.00,,---,0.00,174.00,VWS V14.01,2013-10-28 17:01:00,
2013-10-28 12:06:00,40.1,29.3,30.39,NNE,30,6.0,11.0,65,0.00,,---,0.00,190.00,VWS V14.01,2013-10-28 17:06:00,
2013-10-28 12:11:00,40.1,29.7,30.39,NE,46,4.0,12.0,66,0.00,,---,0.00,178.00,VWS V14.01,2013-10-28 17:11:00,
2013-10-28 12:16:00,40.1,29.7,30.39,NNE,31,6.0,14.0,66,0.00,,---,0.00,142.00,VWS V14.01,2013-10-28 17:16:00,
2013-10-28 12:21:00,39.9,29.1,30.39,NE,50,5.0,14.0,65,0.00,,---,0.00,128.00,VWS V14.01,2013-10-28 17:21:00,
2013-10-28 12:26:00,39.8,29.4,30.39,East,82,9.0,14.0,66,0.00,,---,0.00,134.00,VWS V14.01,2013-10-28 17:26:00,
2013-10-28 12:31:00,40.0,29.6,30.39,ENE,61,7.0,14.0,66,0.00,,---,0.00,139.00,VWS V14.01,2013-10-28 17:31:00,
2013-10-28 12:36:00,40.1,29.7,30.39,ENE,62,5.0,14.0,66,0.00,,---,0.00,156.00,VWS V14.01,2013-10-28 17:36:00,
2013-10-28 12:41:00,40.3,29.9,30.38,ENE,61,2.0,14.0,66,0.00,,---,0.00,146.00,VWS V14.01,2013-10-28 17:41:00,
2013-10-28 12:46:00,40.2,29.4,30.38,ENE,61,8.0,14.0,65,0.00,,---,0.00,149.00,VWS V14.01,2013-10-28 17:46:00,
2013-10-28 12:51:00,40.0,29.2,30.38,NNE,19,6.0,14.0,65,0.00,,---,0.00,137.00,VWS V14.01,2013-10-28 17:51:00,
2013-10-28 12:56:00,40.2,29.8,30.38,ENE,74,5.0,14.0,66,0.00,,---,0.00,130.00,VWS V14.01,2013-10-28 17:56:00,
2013-10-28 13:00:00,40.2,29.8,30.38,NE,36,5.0,14.0,66,0.00,,---,0.00,134.00,VWS V14.01,2013-10-28 18:00:00,
2013-10-28 13:01:00,40.3,29.9,30.38,NE,49,5.0,8.0,66,0.00,,---,0.00,163.00,VWS V14.01,2013-10-28 18:01:00,
2013-10-28 13:06:00,40.3,29.5,30.38,NNE,29,3.0,13.0,65,0.00,,---,0.00,169.00,VWS V14.01,2013-10-28 18:06:00,
2013-10-28 13:11:00,40.7,30.2,30.38,NE,45,5.0,13.0,66,0.00,,---,0.00,179.00,VWS V14.01,2013-10-28 18:11:00,
2013-10-28 13:16:00,40.8,30.0,30.37,East,80,11.0,16.0,65,0.00,,---,0.00,181.00,VWS V14.01,2013-10-28 18:16:00,
2013-10-28 13:21:00,40.8,30.0,30.37,NE,48,2.0,16.0,65,0.00,,---,0.00,186.00,VWS V14.01,2013-10-28 18:21:00,
2013-10-28 13:26:00,41.4,30.5,30.37,NE,40,4.0,16.0,65,0.00,,---,0.00,188.00,VWS V14.01,2013-10-28 18:26:00,
2013-10-28 13:31:00,41.4,30.1,30.37,ENE,71,4.0,16.0,64,0.00,,---,0.00,204.00,VWS V14.01,2013-10-28 18:31:00,
2013-10-28 13:36:00,41.3,29.7,30.37,East,82,2.0,16.0,63,0.00,,---,0.00,209.00,VWS V14.01,2013-10-28 18:36:00,
2013-10-28 13:41:00,41.5,30.2,30.36,NE,44,3.0,16.0,64,0.00,,---,0.00,197.00,VWS V14.01,2013-10-28 18:41:00,
2013-10-28 13:46:00,41.8,30.1,30.36,NE,39,3.0,16.0,63,0.00,,---,0.00,190.00,VWS V14.01,2013-10-28 18:46:00,
2013-10-28 13:51:00,42.1,30.4,30.36,NE,36,7.0,16.0,63,0.00,,---,0.00,192.00,VWS V14.01,2013-10-28 18:51:00,
2013-10-28 13:56:00,42.2,30.5,30.36,East,99,6.0,16.0,63,0.00,,---,0.00,193.00,VWS V14.01,2013-10-28 18:56:00,
2013-10-28 14:00:00,42.3,30.6,30.36,NE,51,3.0,16.0,63,0.00,,---,0.00,174.00,VWS V14.01,2013-10-28 19:00:00,
2013-10-28 14:01:00,42.3,30.2,30.36,NNE,21,2.0,8.0,62,0.00,,---,0.00,171.00,VWS V14.01,2013-10-28 19:01:00,
2013-10-28 14:06:00,42.4,30.3,30.36,NE,38,5.0,9.0,62,0.00,,---,0.00,171.00,VWS V14.01,2013-10-28 19:06:00,
2013-10-28 14:11:00,42.3,30.2,30.36,NE,50,4.0,11.0,62,0.00,,---,0.00,155.00,VWS V14.01,2013-10-28 19:11:00,
2013-10-28 14:16:00,42.5,30.8,30.36,ENE,57,7.0,11.0,63,0.00,,---,0.00,162.00,VWS V14.01,2013-10-28 19:16:00,
2013-10-28 14:21:00,42.4,30.3,30.36,NE,53,3.0,11.0,62,0.00,,---,0.00,156.00,VWS V14.01,2013-10-28 19:21:00,
2013-10-28 14:26:00,42.5,30.8,30.36,ENE,78,5.0,11.0,63,0.00,,---,0.00,156.00,VWS V14.01,2013-10-28 19:26:00,
2013-10-28 14:31:00,42.6,30.5,30.35,NE,52,4.0,11.0,62,0.00,,---,0.00,162.00,VWS V14.01,2013-10-28 19:31:00,
2013-10-28 14:36:00,42.9,31.2,30.36,NE,46,2.0,11.0,63,0.00,,---,0.00,158.00,VWS V14.01,2013-10-28 19:36:00,
2013-10-28 14:41:00,43.1,31.0,30.35,NE,50,4.0,11.0,62,0.00,,---,0.00,160.00,VWS V14.01,2013-10-28 19:41:00,
2013-10-28 14:46:00,43.1,31.0,30.35,NE,51,5.0,11.0,62,0.00,,---,0.00,146.00,VWS V14.01,2013-10-28 19:46:00,
2013-10-28 14:51:00,43.0,30.9,30.36,NE,48,1.0,11.0,62,0.00,,---,0.00,135.00,VWS V14.01,2013-10-28 19:51:00,
2013-10-28 14:56:00,43.0,30.9,30.36,North,5,1.0,11.0,62,0.00,,---,0.00,118.00,VWS V14.01,2013-10-28 19:56:00,
2013-10-28 15:00:00,43.0,30.9,30.36,ENE,73,9.0,11.0,62,0.00,,---,0.00,113.00,VWS V14.01,2013-10-28 20:00:00,
2013-10-28 15:01:00,43.0,30.9,30.36,NE,46,2.0,9.0,62,0.00,,---,0.00,113.00,VWS V14.01,2013-10-28 20:01:00,
2013-10-28 15:06:00,42.9,30.8,30.36,NE,55,4.0,9.0,62,0.00,,---,0.00,111.00,VWS V14.01,2013-10-28 20:06:00,
2013-10-28 15:11:00,42.8,30.7,30.36,NE,39,4.0,9.0,62,0.00,,---,0.00,107.00,VWS V14.01,2013-10-28 20:11:00,
2013-10-28 15:16:00,42.7,30.6,30.36,NNE,32,4.0,9.0,62,0.00,,---,0.00,107.00,VWS V14.01,2013-10-28 20:16:00,
2013-10-28 15:21:00,42.7,30.6,30.36,NE,50,4.0,9.0,62,0.00,,---,0.00,95.00,VWS V14.01,2013-10-28 20:21:00,
2013-10-28 15:26:00,42.6,30.5,30.36,NNE,30,4.0,9.0,62,0.00,,---,0.00,93.00,VWS V14.01,2013-10-28 20:26:00,
2013-10-28 15:31:00,42.4,30.3,30.36,NE,42,3.0,10.0,62,0.00,,---,0.00,84.00,VWS V14.01,2013-10-28 20:31:00,
2013-10-28 15:36:00,42.3,30.6,30.36,NE,51,2.0,10.0,63,0.00,,---,0.00,81.00,VWS V14.01,2013-10-28 20:36:00,
2013-10-28 15:41:00,42.4,30.7,30.36,NE,36,6.0,10.0,63,0.00,,---,0.00,83.00,VWS V14.01,2013-10-28 20:41:00,
2013-10-28 15:46:00,42.2,30.1,30.36,ENE,67,4.0,10.0,62,0.00,,---,0.00,79.00,VWS V14.01,2013-10-28 20:46:00,
2013-10-28 15:51:00,42.1,30.4,30.37,ENE,59,4.0,10.0,63,0.00,,---,0.00,77.00,VWS V14.01,2013-10-28 20:51:00,
2013-10-28 15:56:00,42.0,30.3,30.37,NNE,32,6.0,10.0,63,0.00,,---,0.00,74.00,VWS V14.01,2013-10-28 20:56:00,
2013-10-28 16:00:00,41.9,30.2,30.37,NE,54,5.0,10.0,63,0.00,,---,0.00,69.00,VWS V14.01,2013-10-28 21:00:00,
2013-10-28 16:01:00,41.9,30.6,30.37,East,80,5.0,5.0,64,0.00,,---,0.00,65.00,VWS V14.01,2013-10-28 21:01:00,
2013-10-28 16:06:00,41.9,30.2,30.37,ENE,66,7.0,7.0,63,0.00,,---,0.00,63.00,VWS V14.01,2013-10-28 21:06:00,
2013-10-28 16:11:00,41.8,30.1,30.37,NE,41,3.0,8.0,63,0.00,,---,0.00,58.00,VWS V14.01,2013-10-28 21:11:00,
2013-10-28 16:16:00,41.8,30.5,30.37,ENE,67,5.0,8.0,64,0.00,,---,0.00,53.00,VWS V14.01,2013-10-28 21:16:00,
2013-10-28 16:21:00,41.6,30.3,30.37,NE,55,3.0,8.0,64,0.00,,---,0.00,49.00,VWS V14.01,2013-10-28 21:21:00,
2013-10-28 16:26:00,41.6,30.3,30.37,ENE,59,2.0,8.0,64,0.00,,---,0.00,40.00,VWS V14.01,2013-10-28 21:26:00,
2013-10-28 16:31:00,41.6,30.3,30.37,East,79,9.0,9.0,64,0.00,,---,0.00,39.00,VWS V14.01,2013-10-28 21:31:00,
2013-10-28 16:36:00,41.5,30.2,30.37,NE,49,4.0,9.0,64,0.00,,---,0.00,33.00,VWS V14.01,2013-10-28 21:36:00,
2013-10-28 16:41:00,41.3,30.1,30.38,NE,40,5.0,9.0,64,0.00,,---,0.00,32.00,VWS V14.01,2013-10-28 21:41:00,
2013-10-28 16:46:00,41.3,30.1,30.37,NE,42,3.0,9.0,64,0.00,,---,0.00,28.00,VWS V14.01,2013-10-28 21:46:00,
2013-10-28 16:51:00,41.2,30.0,30.38,NE,40,5.0,9.0,64,0.00,,---,0.00,25.00,VWS V14.01,2013-10-28 21:51:00,
2013-10-28 16:56:00,41.1,29.9,30.37,NE,49,3.0,9.0,64,0.00,,---,0.00,23.00,VWS V14.01,2013-10-28 21:56:00,
2013-10-28 17:00:00,41.1,29.9,30.37,NE,40,3.0,9.0,64,0.00,,---,0.00,23.00,VWS V14.01,2013-10-28 22:00:00,
2013-10-28 17:01:00,41.1,30.2,30.38,NE,50,4.0,7.0,65,0.00,,---,0.00,19.00,VWS V14.01,2013-10-28 22:01:00,
2013-10-28 17:06:00,41.1,29.9,30.38,NE,56,2.0,7.0,64,0.00,,---,0.00,16.00,VWS V14.01,2013-10-28 22:06:00,
2013-10-28 17:11:00,41.1,29.9,30.38,NE,36,4.0,7.0,64,0.00,,---,0.00,16.00,VWS V14.01,2013-10-28 22:11:00,
2013-10-28 17:16:00,41.1,29.9,30.38,ENE,71,4.0,8.0,64,0.00,,---,0.00,12.00,VWS V14.01,2013-10-28 22:16:00,
2013-10-28 17:21:00,41.0,29.8,30.38,NE,39,6.0,8.0,64,0.00,,---,0.00,12.00,VWS V14.01,2013-10-28 22:21:00,
2013-10-28 17:26:00,41.0,30.1,30.38,East,94,1.0,8.0,65,0.00,,---,0.00,11.00,VWS V14.01,2013-10-28 22:26:00,
2013-10-28 17:31:00,41.0,30.1,30.38,East,94,1.0,8.0,65,0.00,,---,0.00,9.00,VWS V14.01,2013-10-28 22:31:00,
2013-10-28 17:36:00,41.0,30.1,30.37,SE,140,2.0,8.0,65,0.00,,---,0.00,7.00,VWS V14.01,2013-10-28 22:36:00,
2013-10-28 17:41:00,41.0,30.1,30.37,ENE,69,1.0,8.0,65,0.00,,---,0.00,5.00,VWS V14.01,2013-10-28 22:41:00,
2013-10-28 17:46:00,41.0,30.1,30.37,ENE,77,2.0,8.0,65,0.00,,---,0.00,0.00,VWS V14.01,2013-10-28 22:46:00,
2013-10-28 17:51:00,40.9,30.1,30.38,ENE,77,2.0,8.0,65,0.00,,---,0.00,0.00,VWS V14.01,2013-10-28 22:51:00,
2013-10-28 17:56:00,40.9,30.1,30.37,NE,56,1.0,8.0,65,0.00,,---,0.00,0.00,VWS V14.01,2013-10-28 22:56:00,
2013-10-28 18:00:00,40.9,30.1,30.38,NE,49,1.0,8.0,65,0.00,,---,0.00,0.00,VWS V14.01,2013-10-28 23:00:00,
2013-10-28 18:01:00,40.9,30.1,30.38,East,82,3.0,5.0,65,0.00,,---,0.00,0.00,VWS V14.01,2013-10-28 23:01:00,
2013-10-28 18:06:00,40.9,30.4,30.37,ENE,74,4.0,5.0,66,0.00,,---,0.00,0.00,VWS V14.01,2013-10-28 23:06:00,
2013-10-28 18:11:00,40.8,30.3,30.38,ENE,65,2.0,5.0,66,0.00,,---,0.00,0.00,VWS V14.01,2013-10-28 23:11:00,
2013-10-28 18:16:00,40.8,30.0,30.38,NE,56,3.0,5.0,65,0.00,,---,0.00,0.00,VWS V14.01,2013-10-28 23:16:00,
2013-10-28 18:21:00,40.8,30.3,30.38,ENE,74,2.0,5.0,66,0.00,,---,0.00,0.00,VWS V14.01,2013-10-28 23:21:00,
2013-10-28 18:26:00,40.7,30.2,30.38,ENE,65,2.0,5.0,66,0.00,,---,0.00,0.00,VWS V14.01,2013-10-28 23:26:00,
2013-10-28 18:31:00,40.7,30.2,30.38,ENE,67,3.0,5.0,66,0.00,,---,0.00,0.00,VWS V14.01,2013-10-28 23:31:00,
2013-10-28 18:36:00,40.7,30.2,30.38,ENE,60,3.0,6.0,66,0.00,,---,0.00,0.00,VWS V14.01,2013-10-28 23:36:00,
2013-10-28 18:41:00,40.7,30.2,30.39,ENE,64,1.0,6.0,66,0.00,,---,0.00,0.00,VWS V14.01,2013-10-28 23:41:00,
2013-10-28 18:46:00,40.7,30.2,30.39,ENE,67,1.0,6.0,66,0.00,,---,0.00,0.00,VWS V14.01,2013-10-28 23:46:00,
2013-10-28 18:51:00,40.7,30.2,30.39,ENE,67,1.0,6.0,66,0.00,,---,0.00,0.00,VWS V14.01,2013-10-28 23:51:00,
2013-10-28 18:56:00,40.7,30.2,30.39,ENE,67,2.0,6.0,66,0.00,,---,0.00,0.00,VWS V14.01,2013-10-28 23:56:00,
2013-10-28 19:00:00,40.7,30.2,30.39,ENE,68,2.0,6.0,66,0.00,,---,0.00,0.00,VWS V14.01,2013-10-29 00:00:00,
2013-10-28 19:01:00,40.7,30.2,30.39,ENE,60,3.0,4.0,66,0.00,,---,0.00,0.00,VWS V14.01,2013-10-29 00:01:00,
2013-10-28 19:06:00,40.7,30.6,30.39,ENE,73,1.0,4.0,67,0.00,,---,0.00,0.00,VWS V14.01,2013-10-29 00:06:00,
2013-10-28 19:11:00,40.7,30.6,30.39,ENE,71,2.0,4.0,67,0.00,,---,0.00,0.00,VWS V14.01,2013-10-29 00:11:00,
2013-10-28 19:16:00,40.7,30.2,30.40,East,85,3.0,5.0,66,0.00,,---,0.00,0.00,VWS V14.01,2013-10-29 00:16:00,
2013-10-28 19:21:00,40.7,30.6,30.40,ENE,58,0.0,5.0,67,0.00,,---,0.00,0.00,VWS V14.01,2013-10-29 00:21:00,
2013-10-28 19:26:00,40.6,30.5,30.40,ENE,59,2.0,5.0,67,0.00,,---,0.00,0.00,VWS V14.01,2013-10-29 00:26:00,
2013-10-28 19:31:00,40.6,30.5,30.40,East,84,3.0,5.0,67,0.00,,---,0.00,0.00,VWS V14.01,2013-10-29 00:31:00,
2013-10-28 19:36:00,40.6,30.5,30.40,NE,50,3.0,7.0,67,0.00,,---,0.00,0.00,VWS V14.01,2013-10-29 00:36:00,
2013-10-28 19:41:00,40.6,30.1,30.40,ENE,59,5.0,7.0,66,0.00,,---,0.00,0.00,VWS V14.01,2013-10-29 00:41:00,
2013-10-28 19:46:00,40.6,30.5,30.40,NE,53,5.0,7.0,67,0.00,,---,0.00,0.00,VWS V14.01,2013-10-29 00:46:00,
2013-10-28 19:51:00,40.6,30.5,30.40,NE,46,2.0,7.0,67,0.00,,---,0.00,0.00,VWS V14.01,2013-10-29 00:51:00,
2013-10-28 19:56:00,40.6,30.5,30.40,NE,52,3.0,7.0,67,0.00,,---,0.00,0.00,VWS V14.01,2013-10-29 00:56:00,
2013-10-28 20:00:00,40.6,30.5,30.40,NE,55,3.0,7.0,67,0.00,,---,0.00,0.00,VWS V14.01,2013-10-29 01:00:00,
2013-10-28 20:01:00,40.6,30.5,30.40,NE,35,2.0,4.0,67,0.00,,---,0.00,0.00,VWS V14.01,2013-10-29 01:01:00,
2013-10-28 20:06:00,40.6,30.5,30.40,NE,42,3.0,5.0,67,0.00,,---,0.00,0.00,VWS V14.01,2013-10-29 01:06:00,
2013-10-28 20:11:00,40.6,30.5,30.40,NE,54,1.0,5.0,67,0.00,,---,0.00,0.00,VWS V14.01,2013-10-29 01:11:00,
2013-10-28 20:16:00,40.6,30.5,30.40,NE,54,3.0,5.0,67,0.00,,---,0.00,0.00,VWS V14.01,2013-10-29 01:16:00,
2013-10-28 20:21:00,40.5,30.4,30.40,NE,46,4.0,5.0,67,0.00,,---,0.00,0.00,VWS V14.01,2013-10-29 01:21:00,
2013-10-28 20:26:00,40.5,30.4,30.40,ENE,73,7.0,8.0,67,0.00,,---,0.00,0.00,VWS V14.01,2013-10-29 01:26:00,
2013-10-28 20:31:00,40.4,30.3,30.40,NE,44,2.0,8.0,67,0.00,,---,0.00,0.00,VWS V14.01,2013-10-29 01:31:00,
2013-10-28 20:36:00,40.3,30.2,30.40,East,86,7.0,8.0,67,0.00,,---,0.00,0.00,VWS V14.01,2013-10-29 01:36:00,
2013-10-28 20:41:00,40.3,30.2,30.40,ENE,58,9.0,9.0,67,0.00,,---,0.00,0.00,VWS V14.01,2013-10-29 01:41:00,
2013-10-28 20:46:00,40.2,30.1,30.40,ENE,57,2.0,9.0,67,0.00,,---,0.00,0.00,VWS V14.01,2013-10-29 01:46:00,
2013-10-28 20:51:00,40.2,30.5,30.40,NE,49,1.0,9.0,68,0.00,,---,0.00,0.00,VWS V14.01,2013-10-29 01:51:00,
2013-10-28 20:56:00,40.2,30.1,30.41,ENE,71,5.0,9.0,67,0.00,,---,0.00,0.00,VWS V14.01,2013-10-29 01:56:00,
2013-10-28 21:00:00,40.2,30.1,30.41,NE,53,4.0,9.0,67,0.00,,---,0.00,0.00,VWS V14.01,2013-10-29 02:00:00,
2013-10-28 21:01:00,40.1,30.4,30.41,NE,51,1.0,5.0,68,0.00,,---,0.00,0.00,VWS V14.01,2013-10-29 02:01:00,
2013-10-28 21:06:00,40.1,30.0,30.41,East,82,7.0,7.0,67,0.00,,---,0.00,0.00,VWS V14.01,2013-10-29 02:06:00,
2013-10-28 21:11:00,40.1,30.0,30.41,NE,46,3.0,11.0,67,0.00,,---,0.00,0.00,VWS V14.01,2013-10-29 02:11:00,
2013-10-28 21:16:00,40.0,29.9,30.41,NE,51,3.0,11.0,67,0.00,,---,0.00,0.00,VWS V14.01,2013-10-29 02:16:00,
2013-10-28 21:21:00,40.0,29.9,30.41,ENE,69,4.0,11.0,67,0.00,,---,0.00,0.00,VWS V14.01,2013-10-29 02:21:00,
2013-10-28 21:26:00,40.0,30.3,30.41,NE,42,1.0,11.0,68,0.00,,---,0.00,0.00,VWS V14.01,2013-10-29 02:26:00,
2013-10-28 21:31:00,39.9,30.2,30.41,NE,34,3.0,12.0,68,0.00,,---,0.00,0.00,VWS V14.01,2013-10-29 02:31:00,
2013-10-28 21:36:00,39.8,30.1,30.41,NE,47,5.0,12.0,68,0.00,,---,0.00,0.00,VWS V14.01,2013-10-29 02:36:00,
2013-10-28 21:41:00,39.8,30.1,30.41,NE,49,4.0,12.0,68,0.00,,---,0.00,0.00,VWS V14.01,2013-10-29 02:41:00,
2013-10-28 21:46:00,39.7,30.0,30.41,ENE,74,4.0,12.0,68,0.00,,---,0.00,0.00,VWS V14.01,2013-10-29 02:46:00,
2013-10-28 21:51:00,39.7,30.0,30.41,NE,39,4.0,12.0,68,0.00,,---,0.00,0.00,VWS V14.01,2013-10-29 02:51:00,
2013-10-28 21:56:00,39.6,29.9,30.42,East,88,6.0,12.0,68,0.00,,---,0.00,0.00,VWS V14.01,2013-10-29 02:56:00,
2013-10-28 22:00:00,39.6,30.3,30.42,NE,55,5.0,12.0,69,0.00,,---,0.00,0.00,VWS V14.01,2013-10-29 03:00:00,
2013-10-28 22:01:00,39.6,30.3,30.41,NE,43,4.0,7.0,69,0.00,,---,0.00,0.00,VWS V14.01,2013-10-29 03:01:00,
2013-10-28 22:06:00,39.5,30.2,30.41,NE,44,5.0,8.0,69,0.00,,---,0.00,0.00,VWS V14.01,2013-10-29 03:06:00,
2013-10-28 22:11:00,39.5,30.2,30.41,NE,52,11.0,11.0,69,0.00,,---,0.00,0.00,VWS V14.01,2013-10-29 03:11:00,
2013-10-28 22:16:00,39.4,30.4,30.42,ENE,74,4.0,11.0,70,0.00,,---,0.00,0.00,VWS V14.01,2013-10-29 03:16:00,
2013-10-28 22:21:00,39.4,30.4,30.41,NE,38,5.0,11.0,70,0.00,,---,0.00,0.00,VWS V14.01,2013-10-29 03:21:00,
2013-10-28 22:26:00,39.3,30.4,30.41,ENE,77,5.0,11.0,70,0.00,,---,0.00,0.00,VWS V14.01,2013-10-29 03:26:00,
2013-10-28 22:31:00,39.3,30.4,30.41,ENE,57,3.0,11.0,70,0.00,,---,0.00,0.00,VWS V14.01,2013-10-29 03:31:00,
2013-10-28 22:36:00,39.2,30.2,30.41,NE,36,4.0,13.0,70,0.00,,---,0.00,0.00,VWS V14.01,2013-10-29 03:36:00,
2013-10-28 22:41:00,39.1,30.2,30.41,NE,43,5.0,13.0,70,0.00,,---,0.00,0.00,VWS V14.01,2013-10-29 03:41:00,
2013-10-28 22:46:00,39.1,30.5,30.41,NE,47,1.0,13.0,71,0.00,,---,0.00,0.00,VWS V14.01,2013-10-29 03:46:00,
2013-10-28 22:51:00,39.0,30.4,30.41,NE,49,5.0,13.0,71,0.00,,---,0.00,0.00,VWS V14.01,2013-10-29 03:51:00,
2013-10-28 22:56:00,39.0,30.4,30.41,ENE,67,2.0,13.0,71,0.00,,---,0.00,0.00,VWS V14.01,2013-10-29 03:56:00,
2013-10-28 23:00:00,38.9,30.3,30.41,ENE,74,3.0,13.0,71,0.00,,---,0.00,0.00,VWS V14.01,2013-10-29 04:00:00,
2013-10-28 23:01:00,38.9,30.3,30.41,NE,42,3.0,8.0,71,0.00,,---,0.00,0.00,VWS V14.01,2013-10-29 04:01:00,
2013-10-28 23:06:00,38.9,30.3,30.40,ENE,63,3.0,8.0,71,0.00,,---,0.00,0.00,VWS V14.01,2013-10-29 04:06:00,
2013-10-28 23:11:00,38.8,30.6,30.40,ENE,57,2.0,8.0,72,0.00,,---,0.00,0.00,VWS V14.01,2013-10-29 04:11:00,
2013-10-28 23:16:00,38.8,30.2,30.41,NNE,32,4.0,8.0,71,0.00,,---,0.00,0.00,VWS V14.01,2013-10-29 04:16:00,
2013-10-28 23:21:00,38.7,30.1,30.40,NE,47,2.0,8.0,71,0.00,,---,0.00,0.00,VWS V14.01,2013-10-29 04:21:00,
2013-10-28 23:26:00,38.7,29.4,30.40,ENE,59,4.0,8.0,69,0.00,,---,0.00,0.00,VWS V14.01,2013-10-29 04:26:00,
2013-10-28 23:31:00,38.7,29.4,30.40,ENE,68,3.0,12.0,69,0.00,,---,0.00,0.00,VWS V14.01,2013-10-29 04:31:00,
2013-10-28 23:36:00,38.7,29.4,30.40,ENE,78,4.0,12.0,69,0.00,,---,0.00,0.00,VWS V14.01,2013-10-29 04:36:00,
2013-10-28 23:41:00,38.6,29.3,30.40,ENE,62,4.0,12.0,69,0.00,,---,0.00,0.00,VWS V14.01,2013-10-29 04:41:00,
2013-10-28 23:46:00,38.6,29.7,30.40,ENE,71,1.0,12.0,70,0.00,,---,0.00,0.00,VWS V14.01,2013-10-29 04:46:00,
2013-10-28 23:51:00,38.6,29.7,30.40,NE,50,2.0,12.0,70,0.00,,---,0.00,0.00,VWS V14.01,2013-10-29 04:51:00,
2013-10-28 23:56:00,38.6,29.7,30.40,East,82,2.0,12.0,70,0.00,,---,0.00,0.00,VWS V14.01,2013-10-29 04:56:00,